Content
SEND FEEDBACK

Daily
Averages
Monthly
Summary
Spain

MÁLAGA, SPAIN


Home > Europe > Spain
Elevation: 23 feet     Latitude: 36 40N     Longitude: 004 29W

WEATHER
 
SELECT A DAY
Number of Records: 324,285;   Date Range: 7/1/96 - 9/30/14
 
SHARE

PRINT THIS DATA

[ ← Previous Day ]
WEATHER ALMANAC - FEBRUARY 20, 2013
[ Next Day → ]
[ °C ]   °F
Weather ElementAverageHighLow
Temperature54.9 °F62.6 °F (4:00 pm)48.2 °F (4:00 am)
Dewpoint45.7 °F51.8 °F (12:30 am)42.8 °F (9:00 pm)
Humidity71.9 %100 % (12:36 am)45 % (7:00 pm)
Barometer29.94 in30.04 in (9:30 pm)29.86 in (12:30 am)
Wind Speed12.4 mph17.3 mph (4:00 am)
Wind Gust26.5 mph (12:36 am)
Weather ElementAverage
Visibility6.1 mi
Wind DirectionWNW (292.7 °)

Weather ElementTotal
Precipitation---
Heating Degree Days9.6 (Base 65)
Growing Degree Days5.4 (Base 50)
Averaged from 45 records on February 20, 2013
WEATHER CONDITIONS BREAKOUT
WIND DIRECTION BREAKOUT
WEATHER BY HOUR - FEBRUARY 20, 2013
[ °C ]   °F
Local TimeTemperatureDewpointHumidityBarometerVisibilityWind DirectionWind SpeedGust SpeedPrecipitationEventsConditions
12:30 AM53.6 °F51.8 °F94 %29.86 in3.7 miWest (280°)11.5 mphRainLight Rain
12:36 AM50.0 °F50.0 °F100 %29.86 in1.9 miWest (280°)13.8 mph26.5 mphRainRain Showers
1:30 AM50.0 °F48.2 °F94 %29.86 in1.9 miWest (280°)16.1 mphRainHeavy Rain Showers
2:00 AM50.0 °F48.2 °F94 %29.89 in1.9 miWest (270°)13.8 mphRainHeavy Rain
2:30 AM50.0 °F48.2 °F94 %29.89 in3.7 miWNW (290°)13.8 mphRainRain
3:00 AM50.0 °F46.4 °F87 %29.89 in3.7 miWNW (290°)16.1 mphRainRain
4:00 AM48.2 °F46.4 °F93 %29.89 in5.0 miWNW (290°)17.3 mphRainLight Rain
5:00 AM48.2 °F44.6 °F87 %29.89 in5.0 miWNW (290°)16.1 mphRainLight Rain
5:30 AM48.2 °F44.6 °F87 %29.89 in5.0 miWNW (290°)11.5 mphRainLight Rain
6:00 AM48.2 °F44.6 °F87 %29.89 in5.0 miWNW (290°)9.2 mphRainLight Rain
6:30 AM48.2 °F44.6 °F87 %29.89 in5.0 miWNW (290°)15.0 mphRainLight Rain
7:00 AM48.2 °F44.6 °F87 %29.89 in5.0 miWNW (300°)11.5 mphRainLight Rain
7:00 AM49.0 °F45.0 °F81 %29.90 in5.0 miWNW (300°)11.5 mphRainLight Rain
7:30 AM48.2 °F44.6 °F87 %29.89 in5.6 miWNW (290°)13.8 mphScattered Clouds
8:00 AM50.0 °F44.6 °F82 %29.89 in6.2 miWNW (290°)15.0 mphPartly Cloudy
8:30 AM50.0 °F44.6 °F82 %29.92 in6.2 miWest (280°)16.1 mphScattered Clouds
9:00 AM50.0 °F44.6 °F82 %29.92 in6.2 miWest (280°)16.1 mphScattered Clouds
10:00 AM53.6 °F44.6 °F72 %29.95 in6.2 miWNW (290°)13.8 mphMostly Cloudy
10:30 AM53.6 °F44.6 °F72 %29.95 in6.2 miWNW (290°)13.8 mphMostly Cloudy
11:00 AM55.4 °F44.6 °F67 %29.95 in6.2 miWNW (290°)16.1 mphScattered Clouds
11:30 AM57.2 °F44.6 °F63 %29.95 in6.2 miWest (280°)15.0 mphScattered Clouds
12:00 PM57.2 °F44.6 °F63 %29.95 in6.2 miWest (280°)13.8 mphScattered Clouds
12:30 PM59.0 °F46.4 °F63 %29.95 in6.2 miWest (280°)13.8 mphScattered Clouds
1:00 PM61.0 °F46.0 °F46 %29.97 in19.0 miWest (280°)15.0 mphScattered Clouds
1:00 PM59.0 °F46.4 °F63 %29.95 in6.2 miWest (280°)15.0 mphScattered Clouds
1:30 PM59.0 °F46.4 °F63 %29.98 in6.2 miWNW (300°)12.7 mphScattered Clouds
2:00 PM60.8 °F48.2 °F63 %29.95 in6.2 miWNW (290°)13.8 mphScattered Clouds
3:00 PM60.8 °F48.2 °F63 %29.95 in6.2 miNW (310°)11.5 mphMostly Cloudy
4:00 PM62.6 °F46.4 °F55 %29.95 in6.2 miNW (310°)9.2 mphMostly Cloudy
4:30 PM62.6 °F46.4 °F55 %29.95 in6.2 miNW (310°)10.4 mphMostly Cloudy
5:00 PM62.6 °F46.4 °F55 %29.95 in6.2 miNW (320°)10.4 mphScattered Clouds
5:30 PM62.6 °F46.4 °F55 %29.95 in6.2 miNNW (330°)12.7 mphScattered Clouds
6:00 PM60.8 °F46.4 °F59 %29.95 in6.2 miNW (320°)9.2 mphPartly Cloudy
6:30 PM59.0 °F46.4 °F63 %29.98 in6.2 miNW (310°)6.9 mphPartly Cloudy
7:00 PM57.2 °F48.2 °F72 %29.98 in6.2 miNW (310°)5.8 mphPartly Cloudy
7:00 PM60.0 °F44.0 °F45 %29.99 in19.0 miNW (310°)5.8 mphScattered Clouds
7:30 PM57.2 °F46.4 °F67 %29.98 in6.2 miWNW (300°)9.2 mphPartly Cloudy
8:00 PM57.2 °F46.4 °F67 %30.01 in6.2 miWNW (290°)10.4 mphPartly Cloudy
8:30 PM57.2 °F44.6 °F63 %30.01 in6.2 miWNW (290°)11.5 mphScattered Clouds
9:00 PM57.2 °F42.8 °F59 %30.01 in6.2 miWest (280°)11.5 mphScattered Clouds
9:30 PM57.2 °F44.6 °F63 %30.04 in6.2 miWest (280°)11.5 mphScattered Clouds
10:00 PM55.4 °F42.8 °F63 %30.04 in6.2 miWNW (290°)10.4 mphScattered Clouds
10:30 PM55.4 °F42.8 °F63 %30.04 in6.2 miWNW (290°)11.5 mphScattered Clouds
11:00 PM55.4 °F42.8 °F63 %30.04 in6.2 miWNW (290°)9.2 mphScattered Clouds
11:30 PM53.6 °F42.8 °F67 %30.04 in6.2 miWNW (290°)10.4 mphScattered Clouds
Hourly data recorded from LEMG, located miles away from Málaga, Spain







STORIES FROM OUR PARTNERS